Location: Mahannah Oil Field
(37.4664°N, 96.6003°W)
Time: 15:22:12
(UTC+00:00)

Vanguard 2 Rocket - Pass Details

Date: 26 January 2021
Orbit: 554 x 3325 km, 32.9° (Epoch: 06 March)

Event Time Altitude Azimuth Distance (km) Brightness Sun altitude
Rises 17:30:31 0° 202° (SSW) 7,286 12.1 31.7°
Reaches altitude 10° 17:37:01 10° 191° (S) 6,255 12.2 32.1°
Maximum altitude 17:50:57 25° 145° (SE) 4,637 12.2 32.9°
Drops below altitude 10° 18:02:02 10° 99° (E) 4,962 11.0 33.3°
Sets 18:06:16 0° 86° (E) 5,560 11.0 33.5°
